Orbital Elements
Epoch 2009 Jan. 9.0 TT = JDT 2454840.5
T 2009 Jan. 18.38230 TT MPC
q 2.3850360 (2000.0) P Q
n 0.17613032 Peri. 253.20683 +0.98321906 -0.00071881
a 3.1519546 Node 106.54436 +0.06391592 +0.93796486
e 0.2433153 Incl. 10.97065 -0.17086555 +0.34672958
P 5.60
From 69 observations 2003 Sept. 22-2014 Oct. 14, mean residual 0".6.
|